Home   Weather   Tartu   Past weeks

Flag for Estonia Past Weather in Tartu, Estonia — Yesterday and Last 2 Weeks

Now
23 °F

Snow flurries. Broken clouds.


Feels Like: 15 °F
Forecast: 17 / 30 °F
Wind: 7 mph from Southwest

Location: Tartu/Ulenurme

Current Time: Jan 17, 2017 at 5:09:53 pm

Latest Report: Jan 17, 2017 at 3:50 pm


Visibility: 6 mi

Pressure: 30.48 "Hg

Humidity: 86%

Dew Point: 19 °F

Location of TartuLocation

Past Weather in Tartu — Graph

°F

Tartu Temperature Yesterday

Maximum temperature yesterday: 28 °F (at 12:50 am)
Minimum temperature yesterday: 21 °F (at 10:50 pm)
Average temperature yesterday: 26 °F

High & Low Weather Summary for the Past Weeks

 TemperatureHumidityPressure
High36 °F (Jan 13, 10:50 am)100% (Jan 16, 8:50 am)30.63 "Hg (Jan 16, 8:50 am)
Low-8 °F (Jan 7, 4:50 am)55% (Jan 5, 12:50 pm)29.18 "Hg (Jan 13, 3:50 am)
Average20 °F81%29.88 "Hg
* Reported Jan 2 3:50 pm — Jan 17 3:50 pm, Tartu, Weather by CustomWeather, © 2017

Note: Actual official high and low records may vary slightly from our data, if they occured in-between our weather recording intervals... More about our weather records

Advertising

Tartu Weather History for the Previous 24 Hours

Scroll right to see more
 ConditionsComfort  
Time TempWeatherWind HumidityBarometerVisibility
3:50 pm
Tue, Jan 17
23 °FSnow flurries. Broken clouds.7 mph86%30.48 "Hg6 mi
2:50 pm23 °FPartly sunny.5 mph86%30.48 "HgN/A
1:50 pm23 °FSnow flurries. More clouds than sun.5 mph86%30.51 "HgN/A
12:50 pm23 °FLow clouds.6 mph86%30.48 "HgN/A
11:50 am23 °FLow clouds.6 mph86%30.48 "HgN/A
10:50 am23 °FLow clouds.5 mph86%30.48 "HgN/A
9:50 am21 °FPartly sunny.5 mph86%30.48 "HgN/A
8:50 am19 °FOvercast.5 mph93%30.45 "HgN/A
7:50 am16 °FIce fog.5 mph86%30.45 "Hg6 mi
6:50 am21 °FMostly cloudy.5 mph86%30.42 "HgN/A
5:50 am19 °FMostly cloudy.6 mph86%30.42 "HgN/A
4:50 am21 °FOvercast.3 mph93%30.42 "HgN/A
3:50 am21 °FMostly cloudy.No wind93%30.39 "HgN/A
2:50 am21 °FMostly cloudy.2 mph93%30.39 "HgN/A
1:50 am21 °FMostly cloudy.2 mph93%30.39 "HgN/A
12:50 am21 °FLow clouds.2 mph93%30.36 "HgN/A
11:50 pm
Mon, Jan 16
21 °FLow clouds.3 mph86%30.36 "HgN/A
10:50 pm21 °FLow clouds.5 mph93%30.33 "HgN/A
9:50 pm23 °FLow clouds.7 mph86%30.33 "HgN/A
8:50 pm23 °FLow clouds.3 mph86%30.30 "HgN/A
7:50 pm25 °FLow clouds.3 mph86%30.27 "HgN/A
6:50 pm25 °FMostly cloudy.6 mph80%30.24 "HgN/A
5:50 pm25 °FLow clouds.3 mph86%30.24 "HgN/A
Weather by CustomWeather, © 2017

See weather overviewHow to use our weather pages